Weather History for Nuiqsut, AK

Change the Weather History Date:

Tuesday, February 25, 2014

  Actual Average (PAKU) Record (PAKU)
Temperature  
Mean Temperature -8 °F -  
Max Temperature 3 °F -9 °F 37 °F (1989)
Min Temperature -20 °F -17 °F -47 °F (1986)
Degree Days  
Heating Degree Days 74    
Moisture  
Dew Point -14 °F    
Average Humidity 82    
Maximum Humidity 88    
Minimum Humidity 78    
Precipitation  
Precipitation 0.00 in - - ()
Sea Level Pressure  
Sea Level Pressure 30.08 in    
Wind  
Wind Speed 7 mph (SW)    
Max Wind Speed 20 mph    
Max Gust Speed -    
Visibility 10 miles    
Events      
Averages and records for this station are not official NWS values.
T = Trace of Precipitation, MM = Missing Value Source: NWS Daily Summary

Daily Weather History Graph

Daily Weather History Graph

Search for Another Location

Airport:

Trip Planner

Search our weather history database for the weather conditions in past years. The results will help you decide how hot, cold, wet, or windy it might be!

Date:

Astronomy

Feb. 25, 2014 Rise Set
Actual Time 8:49 AM AKST 5:46 PM AKST
Civil Twilight 7:45 AM AKST 6:50 PM AKST
Nautical Twilight 6:34 AM AKST 8:01 PM AKST
Astronomical Twilight 5:20 AM AKST 9:16 PM AKST
Moon 7:58 AM AKST (2/25) 12:02 PM AKST (2/25)
Length of Visible Light 11h 04m
Length of Day
8h 56m
Waning Crescent, 17% of the Moon is Illuminated
Feb 25
Waning Crescent
Feb 28
New
Mar 8
First Quarter
Mar 16
Full
Mar 23
Last Quarter

Hourly Weather History & Observations

Time (AKST) Temp. Windchill Dew Point Humidity Pressure Visibility Wind Dir Wind Speed Gust Speed Precip Events Conditions
12:53 AM -18.0 °F -30.9 °F -23.1 °F 78% 30.02 in 10.0 mi NNE 4.6 mph - N/A   Clear
1:53 AM -18.9 °F -29.5 °F -23.1 °F 81% 30.02 in 10.0 mi East 3.5 mph - N/A   Clear
2:53 AM -18.0 °F - -22.0 °F 82% 30.02 in 10.0 mi Calm Calm - N/A   Clear
3:53 AM -18.0 °F - -22.0 °F 82% 30.00 in 10.0 mi Calm Calm - N/A   Clear
4:53 AM -20.9 °F -34.3 °F -24.0 °F 86% 30.01 in 10.0 mi SW 4.6 mph - N/A   Clear
5:53 AM -20.9 °F -34.3 °F -24.0 °F 86% 29.99 in 10.0 mi SSW 4.6 mph - N/A   Clear
6:53 AM -18.9 °F -34.0 °F -23.1 °F 81% 30.00 in 10.0 mi South 5.8 mph - N/A   Clear
7:53 AM -18.0 °F -34.7 °F -22.0 °F 82% 29.98 in 10.0 mi SSW 6.9 mph - N/A   Clear
8:53 AM -18.9 °F -34.0 °F -24.0 °F 78% 29.99 in 10.0 mi SW 5.8 mph - N/A   Clear
9:53 AM -18.9 °F -35.8 °F -24.0 °F 78% 30.00 in 10.0 mi SSW 6.9 mph - N/A   Clear
10:53 AM -18.0 °F -38.6 °F -23.1 °F 78% 30.01 in 10.0 mi SSW 10.4 mph - N/A   Clear
11:53 AM -17.0 °F -34.8 °F -20.0 °F 86% 30.02 in 9.0 mi SSW 8.1 mph - N/A   Clear
12:53 PM -11.0 °F -32.7 °F -16.1 °F 78% 30.03 in 10.0 mi SSW 13.8 mph - N/A   Clear
1:53 PM -9.0 °F -27.4 °F -13.0 °F 83% 30.03 in 10.0 mi SSW 10.4 mph - N/A   Clear
2:53 PM -2.9 °F -20.8 °F -8.0 °F 79% 30.03 in 10.0 mi South 11.5 mph - N/A   Clear
3:53 PM 3.0 °F -17.8 °F -0.9 °F 84% 30.04 in 10.0 mi SW 19.6 mph - N/A   Clear
4:53 PM 1.0 °F -15.8 °F -2.0 °F 87% 30.06 in 10.0 mi SSW 11.5 mph - N/A   Clear
5:53 PM -0.0 °F -20.7 °F -2.9 °F 88% 30.10 in 10.0 mi West 17.3 mph - N/A   Clear
6:53 PM -6.0 °F -27.7 °F -9.0 °F 87% 30.12 in 10.0 mi West 16.1 mph - N/A   Clear
7:53 PM -5.1 °F -22.5 °F -9.0 °F 83% 30.17 in 10.0 mi WSW 10.4 mph - N/A   Overcast
8:53 PM -2.9 °F -19.8 °F -8.0 °F 79% 30.20 in 10.0 mi SW 10.4 mph - N/A   Overcast
9:11 PM -2.0 °F -18.7 °F -7.1 °F 79% 30.20 in 10.0 mi SW 10.4 mph - N/A   Overcast
9:53 PM -2.0 °F -19.6 °F -6.0 °F 83% 30.21 in 10.0 mi WSW 11.5 mph - N/A   Overcast
10:23 PM -2.9 °F -18.8 °F -7.1 °F 82% 30.22 in 10.0 mi SSW 9.2 mph - N/A   Overcast
10:49 PM -0.4 °F -14.7 °F -5.8 °F 78% 30.23 in 10.0 mi South 8.1 mph - N/A   Overcast
10:53 PM -0.9 °F -18.3 °F -4.0 °F 87% 30.24 in 10.0 mi SSW 11.5 mph - N/A   Overcast
11:53 PM -4.0 °F -23.0 °F -8.0 °F 83% 30.26 in 10.0 mi SW 12.7 mph - N/A   Scattered Clouds